Location: Archamps
(46.1365°N, 6.1329°E)
Time: 18:47:07
(UTC+00:00)

YAOGAN 1 - Pass Details

Date: 28 January 2023
Orbit: 616 x 618 km, 97.8° (Epoch: 29 March)

Event Time Altitude Azimuth Distance (km) Brightness Sun altitude
Rises 18:02:16 0° 156° (SSE) 2,878 5.8 -15.3°
Reaches altitude 10° 18:04:28 10° 153° (SSE) 1,978 5.0 -15.7°
Maximum altitude 18:08:42 61° 73° (ENE) 704 2.5 -16.4°
Drops below altitude 10° 18:12:59 10° 354° (N) 1,995 5.1 -17.1°
Sets 18:15:12 0° 351° (N) 2,907 6.0 -17.5°
